Location: Br�znic
(45.9167°N, 22.6500°E)
Time: 08:03:55
(UTC+00:00)

Ariane Rocket - Pass Details

Date: 03 March 2021
Orbit: 759 x 771 km, 98.7° (Epoch: 10 April)

Event Time Altitude Azimuth Distance (km) Brightness Sun altitude
Exits shadow 18:42:04 43° 184° (S) 1,078 3.6 -25.4°
Maximum altitude 18:43:44 72° 257° (WSW) 811 3.1 -25.7°
Drops below altitude 10° 18:48:51 10° 342° (NNW) 2,322 5.9 -26.5°
Sets 18:51:11 0° 345° (NNW) 3,252 6.7 -26.9°
